Wind_Speed
42 42 41 39 38 37 37 38 39 39 40 40 40 39 39 37 35 32 30 29 29 28 28 27 25 25 25 26 26 26 25 25 26 23 22 22 23 22 22 22 23 24 25
41 40 40 39 37 36 35 35 35 35 35 35 35 34 33 31 28 26 24 25 25 26 25 25 24 24 24 23 21 20 19 18 18 17 17 18 19 20 21 22 23 24 25
40 40 39 38 35 34 33 32 32 31 31 31 30 29 27 24 23 22 24 26 25 23 23 22 21 20 19 17 15 13 13 12 13 14 14 15 17 18 20 22 24 26 28
39 38 38 36 34 32 31 30 29 28 27 26 24 23 21 20 20 20 23 25 23 22 22 20 18 16 14 13 11 11 11 11 12 13 15 16 18 19 21 23 25 27 29
37 37 36 35 32 31 29 28 26 24 23 22 21 19 17 15 17 18 20 22 22 22 20 17 15 12 10 9 9 10 10 11 13 15 16 17 19 21 23 25 27 29 31
37 36 35 33 31 29 28 26 24 22 20 19 17 15 14 14 16 17 18 19 19 19 16 14 12 10 9 8 9 10 11 12 14 15 17 18 20 22 23 25 27 28 30
37 36 34 32 29 28 27 24 22 20 18 16 14 12 10 10 13 13 14 15 15 13 12 10 9 9 9 9 10 11 12 13 14 15 16 17 18 19 21 22 23 25 27
39 36 34 32 29 27 25 23 20 17 16 15 13 11 10 8 8 9 9 9 9 9 8 8 8 8 8 9 10 10 11 11 11 12 13 14 15 17 18 20 23 25 27
41 38 36 32 29 26 24 22 19 16 15 14 14 12 11 10 9 8 8 7 7 7 7 6 7 7 8 8 8 9 8 8 8 9 10 12 15 18 21 24 26 28 31
43 40 37 33 30 26 24 21 19 16 14 14 13 13 12 10 9 8 7 8 7 7 6 6 7 7 7 7 7 6 6 7 8 10 12 15 18 21 23 25 27 29 31
46 42 38 35 32 27 24 22 20 17 15 13 13 12 11 10 9 8 8 9 8 7 7 6 6 6 6 6 6 6 6 8 9 11 14 17 19 21 23 25 26 27 28
49 44 39 36 33 29 26 24 21 18 15 14 13 11 10 9 8 8 8 8 7 8 7 7 7 6 6 6 6 7 7 9 10 12 15 17 19 21 23 24 25 26 26
51 47 41 37 34 31 28 25 22 19 16 14 12 11 10 9 9 9 9 8 8 8 8 7 7 7 7 7 7 8 9 10 11 13 15 18 19 21 23 25 25 25 25
50 46 43 39 36 33 31 28 24 20 17 15 14 13 12 11 10 10 10 9 8 8 8 7 7 8 8 8 9 9 9 10 11 13 16 17 19 21 23 25 26 26 25
48 45 44 41 37 35 34 30 25 22 19 18 17 15 14 13 12 11 11 10 9 9 8 8 8 9 9 9 9 8 8 10 12 13 15 17 19 21 23 25 26 26 26
46 45 44 42 39 37 36 33 28 24 21 20 19 18 16 14 13 12 12 11 10 10 9 9 9 9 9 9 8 8 9 10 11 12 14 16 19 21 23 25 27 28 27
42 43 43 41 39 38 38 35 31 27 24 23 22 20 18 16 14 12 11 10 9 9 9 9 9 10 10 10 9 9 10 10 9 10 12 15 18 20 23 25 28 29 30
39 40 40 40 40 39 39 37 33 29 26 25 24 23 20 17 15 13 11 10 9 9 9 9 10 11 11 10 10 10 10 9 8 9 11 14 17 20 22 25 28 30 31
38 39 38 39 39 38 39 39 36 32 29 28 27 25 22 19 16 14 12 11 10 10 10 10 11 11 12 12 12 11 10 9 8 9 10 13 16 18 21 25 28 31 32
37 37 37 39 38 38 40 40 38 34 31 29 27 25 23 20 18 16 15 13 12 12 12 12 12 13 13 13 13 12 11 9 9 9 9 11 14 17 20 24 27 30 32
36 37 37 38 37 39 40 39 38 35 32 30 28 26 23 21 19 17 16 14 14 14 14 14 14 15 15 14 14 13 12 11 11 11 11 12 14 17 20 23 26 29 31
35 36 35 36 37 38 39 39 38 36 33 31 29 26 23 21 19 17 16 15 15 15 15 15 16 16 15 15 15 14 14 13 13 13 14 14 15 17 20 22 25 28 30
34 35 35 37 37 37 37 38 38 36 34 31 29 26 23 21 19 17 16 16 16 16 16 16 16 16 15 15 16 16 15 15 16 16 16 17 17 18 20 22 24 28 30
34 33 35 36 35 35 36 36 36 36 34 31 29 27 24 21 19 18 17 17 16 16 16 15 15 15 15 15 16 16 17 17 18 18 19 19 19 19 20 23 26 29 31
34 34 36 36 34 33 33 34 34 34 34 33 31 28 26 23 20 19 18 17 16 15 15 14 13 13 14 14 16 16 17 18 19 20 20 20 20 21 23 25 28 30 33
35 34 36 35 33 31 30 31 31 32 34 34 32 29 26 23 21 19 18 16 15 14 13 12 12 12 13 14 15 17 17 18 19 19 20 20 22 24 26 28 30 33 35
Wind_Direction
320 318 315 310 305 300 297 295 293 293 292 290 289 288 287 285 281 275 271 268 262 257 254 253 253 250 244 239 237 235 232 230 228 225 226 230 233 239 243 248 252 256 256
318 318 316 312 306 302 299 297 296 296 294 293 292 291 288 283 276 266 259 252 247 242 240 238 235 231 228 228 230 231 232 233 233 234 237 242 247 252 256 258 261 264 265
316 317 317 313 307 303 300 300 300 300 299 298 296 293 288 278 267 255 245 239 233 231 226 214 211 216 222 227 232 238 243 245 247 249 251 255 258 260 261 262 264 266 267
312 314 316 314 308 304 301 301 302 303 303 303 301 294 285 271 257 241 229 223 221 218 211 212 218 225 231 234 245 250 250 250 253 255 257 258 259 260 262 263 264 265 266
307 310 313 313 308 304 302 302 303 303 305 307 303 295 280 263 248 233 221 219 215 211 214 223 234 240 241 244 249 249 251 252 254 255 257 259 262 264 266 268 268 269 269
302 305 308 309 305 302 300 301 300 301 305 308 306 294 278 257 244 236 222 217 216 217 219 227 235 239 239 240 245 249 253 256 259 261 264 266 269 271 272 273 273 274 275
296 298 301 303 300 297 297 297 296 297 300 302 303 300 287 266 247 239 233 225 223 220 219 222 226 232 237 245 249 252 256 260 264 267 270 273 275 277 279 280 281 282 282
290 290 293 295 293 290 291 290 289 290 293 295 297 297 291 276 258 242 233 230 229 227 224 225 230 234 242 245 250 256 259 263 268 272 275 278 282 286 289 291 292 291 290
284 283 284 287 284 281 282 280 280 281 285 288 290 290 284 277 268 252 240 233 230 226 224 228 232 236 243 247 250 253 255 261 268 275 281 290 296 300 301 300 299 297 296
276 276 275 276 274 270 270 269 269 271 276 280 283 283 276 267 260 251 243 233 225 224 226 231 233 236 238 240 239 242 252 266 278 289 298 304 306 307 308 307 306 305 304
266 266 266 268 264 259 258 257 258 260 266 270 275 274 267 257 245 235 231 226 219 214 211 213 217 221 224 231 236 245 260 277 290 299 306 310 313 314 315 316 316 316 314
255 256 258 258 254 249 246 246 247 250 256 260 264 261 254 243 228 217 208 206 200 196 199 202 208 215 223 231 244 260 276 290 300 307 313 318 321 323 326 328 328 327 323
246 246 249 248 245 240 236 236 238 241 245 247 246 242 234 221 211 204 201 200 199 202 205 209 215 222 232 245 260 272 283 293 304 314 322 327 331 334 336 336 336 334 329
242 240 239 242 238 233 229 228 230 233 233 232 228 225 220 214 207 203 202 205 211 213 212 215 221 230 245 258 267 273 283 297 312 321 328 334 338 342 343 343 341 338 333
239 235 232 233 229 226 223 220 221 224 222 218 215 213 212 211 211 209 208 209 212 218 223 227 231 240 252 263 269 278 292 308 318 324 333 340 346 348 349 349 347 344 339
235 232 227 226 222 220 217 215 214 216 215 211 209 208 210 211 213 215 215 215 218 223 228 232 238 246 256 264 271 282 293 303 313 326 339 348 354 356 355 354 352 350 346
228 226 224 221 217 216 213 211 209 210 208 206 205 206 209 211 213 215 216 217 219 224 229 234 239 247 255 262 271 280 286 295 310 331 345 354 358 0 360 359 357 354 352
222 220 217 216 215 213 210 206 205 205 203 202 203 206 208 210 213 218 223 227 230 234 238 241 244 249 254 259 265 269 275 288 308 329 345 355 359 0 1 1 359 357 355
218 215 214 212 211 209 207 203 201 201 200 200 202 204 208 210 215 222 231 237 241 244 248 251 253 255 256 255 258 261 265 277 298 321 339 349 354 357 359 359 358 358 357
214 212 211 209 207 207 205 202 199 198 199 200 202 205 208 212 218 225 233 240 246 250 254 257 261 261 259 253 254 256 259 269 287 307 323 336 343 348 352 354 355 356 357
209 207 206 205 204 202 201 199 197 197 198 200 203 206 210 215 220 227 233 240 246 252 256 260 264 266 264 256 251 253 258 266 278 291 305 318 328 335 341 345 348 351 353
203 202 200 199 198 197 198 198 197 196 198 201 204 208 212 216 221 227 233 240 247 253 258 262 265 267 264 257 251 251 256 263 273 282 294 305 315 324 330 336 340 343 346
196 196 196 194 195 195 196 198 198 197 199 201 205 207 210 215 221 228 236 243 249 253 257 262 263 264 262 254 249 249 254 262 270 278 286 295 304 313 321 329 334 338 340
188 188 188 190 190 192 195 198 198 199 201 205 207 210 213 218 226 234 241 246 250 253 256 259 259 260 257 252 249 250 255 262 269 274 281 288 296 304 313 321 327 332 336
179 179 181 185 187 190 195 198 199 201 203 207 211 214 216 222 230 237 241 245 248 251 253 254 255 255 254 253 254 257 262 267 270 272 277 284 291 300 308 315 322 328 332
173 174 177 180 183 188 194 199 201 203 205 208 211 214 218 223 229 233 237 241 244 246 247 248 250 250 249 252 257 262 268 271 272 273 276 281 289 297 305 312 318 322 327
Height
5767 5761 5755 5750 5745 5741 5737 5734 5731 5728 5725 5723 5720 5718 5716 5715 5713 5713 5712 5712 5711 5712 5713 5715 5717 5719 5721 5724 5726 5728 5730 5732 5734 5736 5738 5740 5743 5746 5748 5751 5754 5756 5757
5760 5754 5748 5742 5737 5733 5729 5725 5722 5719 5716 5713 5710 5707 5705 5704 5703 5703 5703 5703 5704 5705 5706 5708 5710 5713 5716 5718 5721 5723 5726 5727 5729 5731 5733 5735 5738 5740 5742 5744 5746 5748 5749
5752 5747 5741 5735 5730 5725 5721 5718 5714 5711 5708 5705 5701 5698 5696 5695 5695 5695 5696 5697 5697 5699 5701 5702 5704 5708 5711 5714 5716 5718 5721 5723 5725 5727 5729 5731 5733 5735 5737 5738 5739 5740 5741
5744 5739 5734 5729 5723 5719 5715 5712 5708 5705 5701 5698 5694 5692 5690 5689 5689 5689 5689 5690 5692 5694 5696 5698 5700 5703 5706 5709 5711 5714 5716 5718 5720 5722 5724 5726 5728 5729 5730 5731 5731 5731 5731
5736 5732 5727 5722 5717 5713 5709 5706 5703 5699 5696 5693 5690 5687 5685 5684 5684 5684 5683 5685 5687 5689 5691 5694 5696 5699 5701 5704 5707 5709 5712 5714 5716 5717 5719 5720 5721 5722 5722 5722 5723 5722 5722
5728 5723 5719 5715 5710 5707 5704 5701 5697 5694 5692 5689 5686 5684 5682 5681 5681 5680 5680 5682 5683 5685 5687 5690 5693 5695 5697 5700 5703 5706 5708 5710 5711 5712 5713 5714 5715 5715 5715 5714 5714 5713 5713
5718 5715 5711 5707 5703 5701 5698 5695 5692 5690 5688 5686 5684 5682 5680 5679 5679 5679 5679 5680 5681 5682 5684 5687 5689 5692 5694 5697 5700 5702 5703 5705 5707 5707 5708 5708 5708 5708 5708 5707 5706 5705 5703
5707 5705 5702 5699 5696 5694 5692 5690 5688 5685 5684 5683 5681 5680 5679 5678 5677 5677 5677 5678 5679 5680 5682 5684 5687 5689 5691 5694 5696 5698 5700 5701 5702 5702 5702 5702 5702 5702 5701 5700 5699 5697 5695
5696 5694 5692 5690 5688 5687 5686 5684 5683 5681 5680 5679 5679 5677 5677 5676 5675 5675 5676 5676 5677 5679 5680 5683 5685 5687 5689 5691 5693 5695 5696 5697 5697 5697 5697 5697 5696 5696 5695 5693 5691 5689 5685
5682 5682 5681 5680 5679 5679 5678 5678 5677 5676 5676 5675 5675 5675 5674 5673 5673 5673 5674 5674 5675 5677 5679 5681 5683 5685 5687 5689 5690 5692 5693 5693 5693 5693 5693 5692 5691 5690 5687 5685 5682 5679 5675
5666 5667 5669 5669 5669 5669 5670 5671 5671 5671 5671 5671 5671 5671 5671 5671 5671 5671 5671 5672 5674 5676 5677 5679 5681 5683 5685 5686 5688 5689 5689 5690 5690 5690 5689 5688 5686 5683 5680 5677 5673 5669 5665
5647 5651 5654 5657 5658 5659 5661 5663 5664 5664 5665 5666 5667 5668 5668 5669 5669 5669 5669 5671 5673 5675 5676 5678 5680 5681 5682 5684 5685 5686 5686 5686 5686 5686 5684 5682 5680 5677 5674 5670 5666 5662 5658
5626 5633 5638 5642 5645 5648 5652 5654 5657 5658 5659 5661 5663 5664 5666 5667 5667 5668 5668 5669 5671 5673 5674 5676 5677 5679 5680 5681 5682 5682 5683 5683 5682 5681 5679 5677 5674 5671 5667 5664 5660 5656 5652
5606 5614 5621 5627 5632 5636 5641 5646 5649 5651 5653 5655 5658 5660 5662 5664 5665 5666 5667 5668 5669 5671 5672 5674 5675 5676 5677 5678 5678 5679 5679 5679 5678 5677 5675 5673 5670 5666 5662 5659 5655 5651 5647
5587 5596 5605 5612 5618 5624 5630 5636 5641 5644 5647 5650 5652 5655 5659 5661 5663 5664 5665 5666 5667 5669 5670 5671 5672 5673 5674 5674 5675 5675 5675 5675 5674 5673 5671 5668 5665 5662 5659 5655 5651 5647 5642
5570 5579 5588 5597 5605 5612 5619 5626 5632 5637 5640 5644 5647 5650 5654 5657 5659 5661 5662 5664 5665 5666 5668 5669 5670 5670 5671 5671 5672 5672 5672 5672 5671 5670 5667 5665 5662 5659 5655 5651 5647 5643 5639
5555 5564 5573 5583 5592 5601 5608 5616 5623 5629 5633 5637 5641 5645 5649 5653 5656 5658 5659 5661 5662 5663 5665 5666 5667 5667 5668 5668 5668 5669 5669 5669 5668 5666 5664 5661 5659 5656 5653 5649 5645 5640 5636
5542 5551 5561 5571 5581 5590 5598 5607 5615 5621 5626 5631 5636 5640 5644 5648 5651 5654 5656 5657 5659 5660 5661 5662 5663 5664 5664 5664 5665 5666 5666 5665 5664 5662 5660 5658 5656 5653 5650 5647 5643 5638 5633
5531 5541 5550 5560 5570 5580 5589 5597 5606 5614 5620 5625 5630 5634 5639 5643 5646 5649 5652 5653 5655 5656 5657 5658 5659 5659 5660 5661 5661 5662 5662 5661 5660 5659 5657 5655 5653 5651 5648 5645 5641 5636 5631
5522 5531 5541 5551 5561 5571 5580 5589 5598 5606 5613 5619 5624 5629 5634 5638 5641 5644 5647 5649 5650 5652 5653 5654 5654 5655 5655 5656 5657 5657 5658 5657 5656 5655 5654 5652 5651 5648 5646 5643 5639 5634 5630
5514 5524 5533 5543 5553 5563 5573 5582 5591 5600 5607 5614 5619 5624 5628 5632 5636 5639 5642 5644 5645 5647 5648 5649 5649 5650 5650 5651 5652 5652 5652 5652 5652 5652 5650 5649 5647 5645 5643 5640 5636 5632 5627
5508 5518 5528 5538 5548 5558 5567 5577 5585 5594 5601 5607 5613 5618 5623 5627 5631 5634 5636 5639 5640 5642 5643 5644 5644 5644 5645 5645 5646 5647 5647 5648 5648 5647 5646 5645 5643 5642 5639 5637 5633 5629 5625
5504 5514 5524 5534 5544 5553 5563 5571 5580 5588 5595 5602 5608 5613 5618 5622 5625 5628 5631 5633 5635 5637 5638 5638 5639 5639 5640 5640 5641 5642 5643 5643 5643 5642 5642 5640 5639 5638 5636 5633 5630 5626 5621
5501 5511 5521 5531 5541 5550 5559 5568 5575 5583 5590 5596 5602 5608 5613 5617 5620 5623 5626 5628 5630 5631 5632 5633 5634 5634 5634 5635 5636 5636 5637 5638 5638 5637 5636 5635 5634 5633 5631 5628 5625 5621 5617
5500 5510 5520 5530 5539 5548 5556 5564 5571 5578 5585 5591 5597 5603 5608 5612 5616 5619 5621 5623 5625 5626 5627 5628 5629 5629 5629 5630 5630 5631 5632 5632 5632 5632 5631 5630 5629 5627 5625 5623 5619 5615 5611
5501 5511 5520 5529 5538 5547 5554 5561 5567 5574 5580 5586 5592 5598 5603 5607 5611 5614 5616 5619 5620 5622 5623 5624 5624 5625 5626 5626 5626 5626 5626 5626 5626 5626 5625 5625 5623 5621 5619 5616 5613 5609 5605